Wetbulb
49.49 49.68 49.87 50.05 49.89 48.99 42.05 35.65 36.40 45.89 47.32 37.80 39.32 33.31 33.55 40.18 37.10 38.81 36.89 34.91 34.37 31.64 36.34 35.60 33.98 32.63 35.22 40.05 39.55 33.86 34.57 31.38 29.53 32.57 38.38 40.40 38.90 33.60 31.87 23.93 21.91 21.09 19.78 25.89
49.30 49.35 49.48 49.65 49.41 47.43 38.20 33.22 36.60 46.01 45.64 34.46 32.22 34.20 36.49 37.90 36.90 36.29 36.11 34.21 35.96 34.46 32.06 31.32 33.71 34.31 38.35 40.48 37.66 34.54 35.25 28.25 27.45 27.89 33.18 36.97 36.21 37.20 36.44 32.49 28.41 20.72 22.72 26.22
48.92 49.01 49.12 49.27 48.51 47.37 38.86 33.11 29.30 36.64 42.30 39.52 34.06 31.14 33.15 33.45 38.74 36.99 36.70 34.96 35.07 32.97 31.57 33.31 31.34 32.98 37.94 39.84 38.39 43.83 39.49 30.07 25.33 22.35 25.38 31.36 32.53 35.09 36.56 34.59 29.99 28.88 29.10 30.94
48.67 48.81 48.90 49.03 47.62 45.05 36.00 30.49 28.41 29.84 25.94 31.91 33.67 33.86 34.41 33.40 34.49 37.80 36.95 33.95 34.57 31.65 28.60 30.30 29.88 32.78 33.52 37.40 41.98 38.52 36.97 27.03 26.20 28.33 29.88 31.33 31.21 32.10 34.82 33.68 33.74 29.89 32.41 32.48
48.45 48.67 48.56 48.63 47.11 42.81 32.09 27.37 26.53 29.56 26.89 27.91 30.35 32.22 34.04 31.41 33.31 36.08 35.09 33.74 35.40 33.22 31.61 31.01 29.31 32.14 30.96 31.90 33.26 33.13 33.10 25.17 26.42 25.37 29.31 30.18 28.86 30.50 31.89 34.00 34.91 35.46 35.41 34.16
48.45 48.51 48.23 48.31 46.73 40.41 31.16 30.49 31.42 30.05 26.94 25.38 29.97 25.11 30.43 32.19 35.17 38.40 37.68 36.92 34.10 33.69 35.65 36.27 35.52 35.78 34.57 33.49 32.96 31.21 31.44 26.25 20.58 17.74 26.40 26.76 23.18 28.43 30.13 31.00 34.20 34.58 31.01 35.85
48.22 48.31 48.07 47.97 46.20 40.89 33.95 31.64 29.63 25.45 24.46 25.31 25.04 27.76 30.10 30.03 32.12 33.21 37.77 38.06 36.78 37.56 38.24 38.81 35.99 34.78 34.16 34.53 31.80 33.91 28.46 25.33 22.21 16.88 21.88 12.77 26.53 30.58 32.42 31.17 32.58 34.89 35.63 37.09
47.97 47.95 47.51 47.59 46.85 44.68 35.52 32.96 30.84 26.86 23.90 25.82 26.80 27.20 26.83 28.23 29.64 31.60 36.71 39.56 36.35 35.16 38.34 33.56 30.48 29.28 30.39 31.21 32.86 31.20 32.18 28.57 22.35 18.03 17.13 23.88 26.65 30.48 30.34 29.55 30.02 32.95 33.59 35.99
47.65 47.20 47.14 47.21 46.92 44.99 37.01 34.63 33.22 29.70 26.44 24.95 28.00 25.93 26.29 23.36 22.37 27.84 35.44 38.82 36.81 39.32 35.72 32.80 25.24 22.84 25.50 25.56 28.47 35.08 35.79 31.81 25.90 24.10 17.66 16.76 26.26 33.22 35.19 34.05 26.52 35.20 35.89 35.43
47.53 47.00 46.79 47.11 47.13 45.38 38.52 36.08 34.80 30.83 26.89 27.64 27.66 24.70 25.01 27.31 24.61 22.61 30.66 30.11 32.63 38.64 34.20 32.22 27.91 23.19 27.11 24.46 24.48 26.01 29.40 31.47 23.74 25.76 25.51 26.54 31.82 33.77 35.33 25.20 27.14 36.74 37.47 37.81
47.56 47.18 47.08 47.38 47.19 45.71 39.17 36.27 38.91 32.54 27.81 28.28 31.62 32.09 26.34 27.70 25.86 22.51 26.20 31.25 32.59 34.98 31.66 30.89 29.33 26.97 25.78 23.44 25.46 25.78 26.89 24.30 24.61 25.87 25.53 20.17 33.47 34.08 30.11 34.59 36.93 38.26 38.62 38.06
47.77 47.65 47.31 47.13 47.09 45.89 41.42 36.64 39.85 38.81 30.62 29.63 33.40 34.13 34.02 33.17 32.34 27.90 26.86 28.24 32.99 32.03 32.68 31.85 32.96 31.09 30.23 24.16 22.69 27.20 25.95 28.46 26.20 27.63 27.28 34.00 33.20 36.14 37.73 38.44 38.47 38.86 38.33 39.17
47.76 47.50 47.14 47.33 46.83 45.78 41.96 35.50 36.25 35.54 28.49 28.18 28.84 28.72 32.89 35.75 35.09 35.70 26.02 29.50 33.28 32.23 33.34 31.29 31.59 30.46 34.86 29.15 28.65 25.72 27.58 30.65 28.96 29.38 31.47 32.42 34.33 35.39 35.54 37.18 38.37 40.15 40.73 41.72
47.56 47.34 47.58 47.07 46.10 45.13 41.38 35.18 35.96 34.99 30.58 24.02 27.10 34.58 31.47 35.46 36.62 36.70 35.17 33.76 34.13 32.89 29.83 26.50 26.59 26.33 30.51 30.15 30.37 30.44 33.28 33.74 31.03 29.65 32.47 34.12 34.05 34.98 35.35 35.50 38.35 38.70 40.18 39.93
47.23 47.30 46.74 46.15 45.26 43.94 38.71 35.62 35.29 35.84 29.68 25.15 26.55 30.42 32.69 33.69 34.94 34.75 35.49 34.29 31.49 28.23 24.79 22.53 25.52 28.81 28.95 28.74 28.91 28.24 29.63 28.35 26.88 26.65 32.91 30.89 31.91 33.87 33.58 37.20 37.74 38.83 38.98 38.77
47.13 46.52 45.61 45.25 43.91 41.75 35.38 29.95 34.37 37.01 34.14 23.95 20.88 29.49 29.48 31.75 33.37 32.67 33.11 33.65 32.23 30.42 27.80 26.53 27.49 30.10 29.23 24.87 23.25 27.64 29.72 30.52 31.88 27.30 30.65 30.49 31.18 33.37 34.30 36.12 36.82 38.67 38.41 38.80
46.30 45.43 45.67 44.82 43.66 35.32 31.74 30.27 34.70 39.48 34.12 25.47 18.94 20.63 29.89 32.54 31.46 30.70 30.00 31.07 29.90 28.94 27.65 27.69 26.32 25.94 26.83 25.84 22.25 27.66 28.88 30.32 31.27 33.06 28.72 28.24 30.63 31.16 34.96 36.08 37.52 39.05 36.18 35.97
45.69 45.68 45.02 44.07 43.57 39.35 33.58 37.50 41.01 37.27 30.12 24.94 13.62 17.12 23.87 32.97 29.08 28.68 31.07 28.74 29.51 29.58 28.05 27.98 26.42 27.17 25.68 21.59 25.94 29.56 32.85 33.73 33.00 31.65 31.12 31.85 34.25 34.99 35.57 36.97 36.88 36.35 34.96 34.37
45.50 45.14 44.51 36.48 32.89 29.84 31.94 42.24 40.73 36.16 30.66 18.66 17.17 20.39 15.56 30.34 28.58 34.17 31.69 29.28 25.23 28.53 26.03 26.10 27.21 24.81 21.74 27.91 30.00 32.23 32.94 32.78 32.71 34.84 36.10 35.57 34.52 34.89 35.61 36.37 36.67 36.04 35.05 34.40
45.65 36.59 31.59 27.52 31.57 39.80 40.01 36.44 29.77 28.57 27.60 25.02 16.68 27.82 20.95 25.81 25.30 26.06 29.11 27.89 25.36 18.92 25.59 28.42 25.17 24.85 29.22 31.60 34.49 33.69 33.32 34.28 33.66 31.54 31.86 33.77 32.21 32.87 34.06 35.67 36.12 36.02 35.81 34.61
34.10 30.46 27.93 31.88 39.42 33.03 29.32 22.13 21.28 22.91 18.67 27.15 27.77 28.09 22.77 29.12 21.47 24.56 30.94 29.11 25.26 17.13 24.45 25.30 24.63 25.21 30.49 34.03 33.83 33.35 33.26 33.50 33.17 35.81 35.38 33.85 33.49 31.53 33.60 34.97 34.66 35.12 35.52 34.01
34.74 33.46 33.94 31.15 26.74 20.21 16.69 11.67 19.50 19.87 17.61 24.62 23.19 26.41 27.19 27.59 32.43 30.06 31.36 25.12 27.53 23.22 28.55 25.68 24.55 27.82 30.06 33.13 33.06 32.65 32.58 32.28 32.27 33.92 34.47 33.81 33.73 33.11 33.35 32.91 32.29 33.31 33.73 33.45
32.44 29.18 21.93 24.02 17.88 14.48 10.80 8.95 10.73 12.26 19.14 23.23 23.15 17.84 24.52 27.63 29.95 27.04 29.92 26.84 26.43 30.06 26.48 23.66 25.53 30.01 31.81 32.48 32.98 32.67 33.30 32.95 32.45 32.18 33.02 33.69 33.53 32.21 30.72 29.35 28.87 28.86 28.72 29.07
24.67 18.40 14.97 14.88 12.54 12.79 14.74 14.43 15.22 20.83 27.06 22.24 23.41 18.67 25.02 26.87 23.73 26.30 20.71 29.23 31.34 20.05 14.27 16.82 20.06 25.97 30.44 32.07 32.34 32.11 31.54 31.97 30.87 31.18 31.39 30.93 31.01 30.28 30.08 28.04 27.87 28.09 27.67 27.58
20.10 20.06 15.51 12.50 18.68 20.20 18.13 20.68 23.08 21.37 25.46 24.41 20.93 19.92 24.03 21.52 24.75 26.39 25.27 22.80 16.83 16.54 14.95 17.16 20.62 23.95 28.12 30.21 31.15 30.61 30.61 31.46 30.39 30.80 30.93 28.81 29.13 29.09 27.64 27.62 26.73 28.40 28.15 27.19
19.79 16.56 16.99 20.57 16.31 12.00 23.70 23.86 19.04 21.11 24.31 24.23 21.48 15.36 13.01 16.78 20.42 23.21 20.70 22.10 13.24 16.43 16.43 21.56 24.36 24.81 26.21 26.88 28.76 28.97 29.43 30.63 30.96 30.00 31.02 31.30 30.15 28.72 28.58 27.87 25.56 25.78 26.15 26.19
18.71 17.07 24.28 18.83 14.13 17.70 18.96 23.82 24.10 25.77 22.18 15.95 15.42 9.71 13.36 22.43 20.34 19.55 24.59 21.96 17.65 15.93 28.84 27.15 24.05 23.80 25.14 26.24 26.21 26.87 28.15 29.51 30.12 29.25 30.67 31.14 31.00 29.49 28.37 27.19 27.11 25.59 25.61 25.68
MSLP
1017.87 1017.43 1017.02 1016.43 1015.76 1015.29 1015.38 1016.25 1016.61 1016.45 1016.42 1016.57 1016.04 1015.55 1014.78 1013.50 1013.00 1012.39 1011.93 1012.20 1012.32 1012.62 1012.92 1013.41 1013.85 1013.79 1013.64 1013.38 1013.64 1014.27 1014.86 1016.00 1017.24 1017.38 1017.22 1017.04 1017.10 1017.67 1018.16 1019.15 1019.91 1019.94 1019.23 1015.43
1017.66 1017.25 1016.89 1016.37 1015.65 1015.17 1015.76 1016.74 1017.04 1016.55 1016.49 1016.25 1015.68 1015.01 1014.17 1013.30 1012.83 1012.65 1012.51 1012.42 1012.35 1012.50 1012.89 1013.49 1013.89 1013.95 1013.61 1013.56 1013.74 1014.36 1014.72 1015.83 1017.20 1017.81 1017.89 1017.41 1017.19 1017.37 1017.83 1018.45 1018.76 1018.66 1018.35 1015.08
1017.49 1017.14 1016.76 1016.21 1015.62 1015.12 1015.62 1017.11 1017.57 1016.96 1016.48 1016.22 1016.02 1015.45 1014.76 1013.89 1013.01 1012.86 1012.57 1012.76 1012.62 1012.68 1012.96 1013.28 1013.98 1014.05 1014.04 1013.96 1014.14 1014.34 1014.60 1016.04 1016.80 1017.14 1016.83 1016.85 1017.18 1016.86 1017.15 1017.91 1017.92 1017.03 1015.47 1014.44
1017.38 1017.06 1016.72 1016.25 1015.57 1015.12 1015.65 1017.61 1018.50 1018.07 1017.44 1017.09 1016.41 1015.81 1015.05 1014.29 1013.78 1013.42 1013.06 1013.20 1013.41 1013.40 1013.68 1013.79 1013.92 1014.11 1014.26 1014.42 1014.56 1015.16 1015.77 1016.74 1017.29 1017.30 1017.23 1017.22 1016.98 1016.66 1016.81 1016.84 1016.21 1016.28 1014.41 1013.82
1017.34 1017.07 1016.78 1016.31 1015.66 1015.30 1016.64 1018.51 1018.97 1018.65 1018.24 1017.80 1017.07 1016.54 1015.91 1015.15 1014.76 1014.10 1013.95 1014.05 1014.10 1013.75 1014.12 1014.56 1014.49 1014.27 1014.32 1014.50 1015.22 1015.81 1016.56 1017.50 1018.01 1018.17 1017.71 1017.48 1017.17 1016.50 1016.27 1016.04 1015.72 1015.40 1014.53 1013.49
1017.25 1017.18 1016.93 1016.56 1015.87 1015.31 1017.58 1018.96 1019.02 1019.00 1018.97 1018.38 1017.75 1017.63 1016.87 1016.47 1015.78 1015.22 1014.85 1014.37 1014.44 1014.63 1014.86 1014.80 1014.66 1014.51 1014.49 1014.61 1015.10 1016.05 1016.88 1017.94 1019.07 1019.22 1018.57 1018.06 1017.50 1015.44 1015.42 1015.27 1014.68 1014.46 1014.26 1011.86
1017.26 1017.27 1017.10 1016.80 1016.58 1016.22 1017.51 1018.90 1019.18 1019.33 1019.66 1019.16 1018.94 1018.43 1017.86 1017.51 1016.83 1016.39 1015.79 1015.05 1014.90 1015.13 1014.85 1014.70 1014.64 1014.65 1014.78 1014.96 1015.56 1015.93 1017.21 1018.19 1018.98 1019.39 1018.92 1017.78 1014.99 1014.27 1014.14 1014.26 1013.83 1013.62 1013.01 1012.21
1017.30 1017.39 1017.35 1017.10 1017.09 1016.97 1017.62 1018.76 1019.08 1019.52 1020.10 1020.06 1019.69 1019.36 1018.90 1018.27 1017.68 1017.17 1016.55 1016.11 1015.98 1015.53 1015.12 1015.09 1015.18 1015.42 1015.41 1015.37 1015.63 1016.13 1016.54 1017.75 1018.82 1019.11 1018.70 1016.31 1014.29 1013.90 1013.73 1013.66 1013.15 1012.60 1012.66 1012.19
1017.36 1017.52 1017.42 1017.35 1017.33 1017.32 1017.80 1018.92 1019.03 1019.41 1020.14 1021.09 1020.52 1020.12 1019.85 1019.77 1019.44 1018.42 1017.23 1016.57 1016.16 1015.70 1015.64 1015.74 1015.94 1016.07 1015.93 1016.02 1016.03 1016.10 1016.63 1017.00 1018.12 1018.54 1018.06 1016.43 1014.29 1013.22 1012.91 1013.01 1012.79 1012.20 1012.17 1011.99
1017.31 1017.57 1017.46 1017.44 1017.51 1017.47 1017.85 1019.00 1018.90 1019.21 1020.37 1020.99 1020.60 1020.46 1020.29 1019.77 1019.52 1019.07 1018.40 1017.81 1017.11 1016.62 1016.34 1016.48 1016.58 1016.43 1016.29 1016.51 1016.51 1016.67 1017.00 1017.34 1017.82 1017.85 1017.17 1015.46 1013.66 1013.15 1012.84 1012.99 1012.94 1011.91 1011.81 1011.61
1017.25 1017.52 1017.50 1017.51 1017.66 1017.60 1017.87 1019.12 1018.77 1019.25 1020.49 1020.91 1020.71 1020.62 1020.32 1020.15 1020.44 1020.42 1019.69 1019.20 1018.38 1017.91 1017.60 1017.49 1017.38 1017.19 1017.04 1017.05 1016.86 1016.75 1016.96 1017.36 1017.51 1017.33 1016.53 1014.93 1013.17 1013.06 1013.04 1012.59 1012.04 1011.83 1011.54 1011.31
1017.23 1017.50 1017.54 1017.63 1017.73 1017.72 1017.90 1019.08 1019.05 1019.08 1020.11 1021.02 1021.01 1020.76 1020.33 1020.41 1020.27 1020.12 1019.60 1019.59 1018.98 1018.99 1018.92 1018.75 1018.26 1018.01 1017.90 1017.73 1017.55 1016.92 1017.00 1016.74 1016.96 1016.75 1015.43 1013.88 1013.34 1013.00 1012.47 1012.38 1012.25 1011.68 1011.37 1011.11
1017.17 1017.37 1017.53 1017.78 1017.84 1017.80 1018.06 1019.31 1019.38 1019.43 1020.40 1021.11 1021.02 1020.75 1020.56 1020.43 1020.38 1020.42 1020.77 1020.55 1020.48 1019.91 1019.57 1019.54 1019.37 1019.05 1018.82 1018.54 1018.11 1017.71 1016.77 1016.61 1016.79 1016.39 1014.82 1014.45 1013.77 1013.49 1013.42 1013.22 1012.96 1012.03 1011.28 1010.98
1017.07 1017.25 1017.44 1017.74 1017.96 1018.05 1018.42 1019.48 1019.68 1019.81 1020.75 1021.45 1021.39 1020.71 1020.70 1020.48 1020.39 1020.60 1020.78 1021.18 1021.31 1021.34 1021.09 1020.51 1020.05 1019.91 1019.63 1019.39 1019.06 1018.45 1017.34 1017.04 1016.64 1016.19 1015.38 1014.77 1014.08 1014.23 1014.26 1013.54 1012.98 1012.33 1011.80 1011.24
1016.92 1017.14 1017.51 1017.83 1018.16 1018.35 1018.98 1019.78 1020.26 1020.04 1020.57 1021.61 1021.79 1021.46 1021.04 1020.73 1020.75 1020.66 1021.08 1021.65 1021.93 1022.20 1022.05 1021.87 1021.29 1020.64 1020.33 1020.01 1019.64 1018.74 1017.92 1017.89 1017.79 1017.14 1016.94 1016.74 1015.82 1014.93 1014.54 1013.94 1013.40 1012.76 1012.13 1011.61
1016.79 1017.27 1017.62 1017.97 1018.25 1018.30 1018.83 1020.07 1020.62 1020.34 1020.47 1021.54 1022.28 1022.15 1021.61 1021.09 1020.99 1021.09 1021.39 1021.70 1021.84 1022.11 1022.37 1022.23 1021.93 1021.29 1021.02 1020.65 1020.14 1018.83 1018.48 1018.39 1018.43 1017.85 1017.11 1016.67 1015.79 1015.15 1014.33 1014.01 1013.45 1012.77 1012.18 1011.73
1016.75 1017.28 1017.77 1018.21 1018.54 1018.95 1019.26 1020.14 1020.58 1020.46 1020.68 1021.75 1022.89 1022.89 1022.05 1021.62 1021.53 1021.61 1021.71 1021.81 1022.35 1022.43 1022.33 1022.05 1021.94 1021.72 1021.39 1021.14 1020.51 1019.01 1018.81 1018.53 1018.02 1017.53 1017.09 1016.18 1015.43 1014.90 1014.58 1014.15 1013.31 1012.71 1012.14 1012.12
1016.84 1017.45 1018.14 1018.50 1018.71 1018.93 1019.51 1020.35 1020.34 1020.59 1021.27 1022.29 1023.52 1023.87 1022.72 1021.98 1022.11 1022.13 1021.91 1022.02 1022.37 1022.50 1022.88 1022.69 1022.26 1021.88 1021.83 1021.43 1019.96 1019.14 1018.73 1018.12 1017.44 1017.10 1016.88 1016.35 1015.56 1014.77 1014.20 1013.65 1012.94 1012.59 1012.45 1012.65
1017.00 1017.87 1018.26 1019.20 1019.51 1019.89 1020.40 1020.30 1020.54 1020.71 1021.66 1023.26 1024.42 1024.76 1023.72 1022.39 1022.21 1021.98 1022.28 1022.25 1022.70 1023.05 1023.00 1022.65 1022.77 1022.42 1021.96 1020.73 1019.94 1019.43 1019.00 1018.70 1017.76 1016.94 1016.32 1015.74 1015.15 1014.47 1014.02 1013.54 1012.84 1012.62 1012.70 1012.70
1017.20 1018.41 1018.66 1020.21 1020.42 1020.01 1020.12 1020.75 1021.22 1021.73 1022.69 1023.35 1024.71 1024.83 1024.01 1023.43 1022.56 1021.94 1021.90 1022.13 1022.35 1022.80 1022.42 1022.65 1022.28 1021.75 1020.50 1020.10 1019.93 1019.45 1019.05 1018.64 1018.01 1017.06 1015.97 1015.49 1015.08 1014.72 1014.09 1013.40 1012.98 1012.88 1012.93 1013.12
1017.97 1018.31 1019.75 1020.54 1020.16 1020.19 1021.08 1022.22 1023.06 1023.64 1024.28 1024.46 1024.50 1024.42 1023.94 1023.12 1022.87 1022.10 1021.75 1021.54 1021.97 1022.48 1022.80 1022.47 1021.95 1020.82 1019.94 1019.94 1019.77 1019.38 1018.99 1018.60 1018.06 1017.22 1016.61 1016.12 1015.50 1014.85 1014.13 1013.63 1013.47 1013.22 1013.29 1013.26
1016.94 1017.62 1019.43 1020.43 1020.92 1021.70 1022.68 1024.20 1024.46 1024.42 1024.78 1024.61 1024.38 1024.09 1023.84 1023.07 1022.29 1022.05 1021.53 1021.55 1021.84 1022.27 1022.22 1022.19 1021.30 1020.21 1019.78 1019.61 1019.56 1019.30 1019.00 1018.54 1017.98 1017.36 1016.81 1016.20 1015.70 1015.39 1014.72 1014.37 1014.12 1014.11 1014.06 1013.77
1017.19 1018.07 1020.01 1020.80 1022.44 1023.31 1023.73 1024.91 1025.20 1025.19 1024.66 1024.55 1024.41 1024.27 1023.73 1023.07 1022.58 1022.11 1021.41 1021.31 1021.34 1021.73 1022.04 1021.55 1020.67 1019.95 1019.59 1019.26 1019.01 1018.79 1018.70 1018.46 1018.13 1017.67 1017.12 1016.57 1016.14 1015.91 1015.55 1015.36 1015.38 1014.99 1014.60 1014.32
1017.74 1019.35 1021.36 1022.04 1023.03 1023.47 1023.68 1023.78 1023.98 1024.08 1024.30 1024.54 1024.61 1024.62 1024.01 1023.40 1023.03 1022.12 1021.45 1020.98 1021.15 1021.49 1021.90 1021.15 1020.45 1019.86 1019.43 1019.11 1018.78 1018.44 1018.17 1018.09 1018.02 1017.80 1017.42 1016.96 1016.59 1016.31 1016.11 1015.74 1015.47 1015.23 1015.04 1014.83
1018.81 1019.88 1022.04 1022.68 1022.99 1023.45 1023.66 1023.67 1023.96 1024.06 1024.19 1024.42 1024.63 1024.58 1024.33 1023.61 1022.93 1022.18 1021.54 1021.30 1021.62 1021.76 1021.41 1020.93 1020.56 1019.90 1019.24 1018.82 1018.56 1018.23 1017.86 1017.58 1017.47 1017.54 1017.38 1017.05 1016.71 1016.50 1016.32 1016.08 1015.94 1015.65 1015.42 1015.36
1019.72 1021.10 1022.32 1022.98 1023.18 1024.08 1024.04 1024.01 1024.03 1023.82 1024.16 1024.50 1024.64 1025.22 1025.29 1024.11 1023.30 1022.43 1021.79 1021.88 1021.57 1020.77 1020.86 1020.35 1020.27 1019.83 1019.34 1018.93 1018.49 1018.08 1017.75 1017.34 1016.89 1016.88 1017.03 1016.98 1016.61 1016.37 1016.23 1016.12 1015.97 1015.88 1015.66 1015.63
1020.49 1021.65 1021.42 1021.91 1022.28 1022.89 1023.23 1023.31 1023.39 1023.54 1024.10 1024.97 1025.19 1025.54 1025.08 1024.64 1024.07 1023.12 1022.30 1021.37 1020.53 1020.15 1020.16 1019.94 1019.79 1019.73 1019.43 1019.15 1018.67 1018.19 1017.65 1017.15 1016.60 1016.36 1016.47 1016.59 1016.48 1016.26 1016.04 1015.87 1015.69 1015.91 1015.75 1015.74
Wind_Speed
9 13 16 17 19 12 7 2 3 1 2 2 0 2 3 3 3 4 3 2 1 3 4 3 2 4 2 4 4 4 1 6 5 2 3 2 3 5 5 5 5 1 2 10
9 12 15 17 18 6 4 3 2 1 1 2 2 4 3 2 3 3 4 4 4 3 4 4 2 2 6 4 3 5 5 2 5 2 2 3 5 5 3 2 3 6 4 7
8 12 15 17 17 4 5 3 2 1 1 1 2 3 3 3 3 2 2 2 3 3 4 5 5 3 3 1 2 10 5 3 5 7 4 4 6 10 13 10 6 7 14 16
7 12 15 18 16 2 5 4 1 2 2 1 3 1 2 2 4 5 5 4 5 2 3 3 3 3 3 5 6 5 4 1 3 3 2 3 4 7 14 16 21 11 17 18
7 11 14 18 17 5 7 3 2 2 1 2 2 5 3 3 4 3 3 5 5 2 5 3 2 3 0 3 2 4 2 2 3 4 3 4 4 8 9 17 19 17 21 26
8 10 12 15 17 7 4 1 1 3 3 3 1 0 1 4 4 2 4 2 1 4 1 2 3 4 1 2 6 3 4 6 4 5 2 2 6 15 15 6 7 16 16 24
7 7 9 12 13 10 4 1 3 3 2 3 3 4 3 5 6 3 4 6 3 1 6 3 2 5 5 6 3 4 5 5 3 4 2 2 6 3 6 13 11 12 12 13
7 7 9 11 11 11 5 2 3 3 3 1 4 8 4 4 5 4 3 5 1 6 4 3 3 4 2 0 3 2 3 5 3 3 3 8 3 1 4 5 6 5 13 16
7 6 9 11 11 8 5 2 2 3 5 3 2 2 4 3 4 6 3 3 8 5 2 3 2 3 3 1 1 2 3 5 4 2 1 4 5 1 3 3 4 3 4 8
8 6 8 9 9 8 5 2 2 4 5 2 3 3 0 1 1 2 2 6 8 4 1 2 2 2 3 2 3 3 2 1 4 4 3 8 7 5 2 3 5 5 3 6
9 7 6 6 6 7 4 1 3 4 3 1 3 3 2 2 3 1 4 2 2 3 3 2 1 1 1 1 2 4 6 4 4 2 3 7 3 1 3 5 4 4 5 4
9 8 7 7 6 6 5 3 3 3 5 2 1 3 2 1 2 2 2 3 2 2 1 2 1 1 1 1 2 2 2 5 3 7 6 3 2 4 5 3 5 5 4 4
10 10 7 7 8 8 7 3 1 3 4 3 3 2 4 2 2 0 2 3 3 2 1 2 1 1 2 1 2 3 2 1 2 3 4 4 6 6 4 6 8 9 6 3
12 11 10 10 9 10 7 3 2 4 4 4 3 2 2 3 3 4 2 1 4 2 3 1 2 2 3 1 3 3 3 5 3 7 5 9 3 5 8 19 14 10 8 4
13 12 11 11 14 18 9 4 3 2 4 4 1 3 3 2 3 5 5 4 3 2 3 2 0 1 2 1 2 3 1 2 2 5 1 3 9 16 13 13 12 13 8 5
14 12 12 16 19 15 4 4 3 2 2 5 2 3 3 3 4 5 4 2 1 1 1 1 3 2 1 1 2 4 3 5 2 6 10 12 15 15 15 6 12 12 8 8
15 13 15 15 10 4 4 4 2 2 2 4 3 4 4 3 3 3 3 3 2 1 0 0 1 2 3 0 3 3 7 11 14 14 8 8 5 9 12 16 17 12 3 2
17 18 18 19 20 10 6 3 4 3 5 4 4 4 4 4 3 2 1 2 2 2 2 2 1 2 2 3 8 11 14 16 14 9 7 11 14 14 14 14 9 7 4 2
21 21 19 4 4 4 2 2 5 3 4 4 4 2 4 4 1 1 1 1 2 1 1 1 1 1 1 8 10 13 14 11 17 16 14 14 13 15 14 13 6 5 5 4
21 3 4 3 1 3 5 3 3 5 4 4 3 2 3 3 2 2 0 1 2 1 1 2 1 3 7 7 8 10 12 12 13 14 14 13 12 10 10 7 1 2 2 2
1 3 3 3 2 3 4 4 4 3 5 1 1 3 2 2 1 2 1 0 2 2 1 2 0 4 2 6 9 9 10 11 12 11 10 8 9 10 7 4 3 1 2 0
6 7 6 3 4 4 8 1 3 4 3 2 1 2 2 3 2 1 1 1 1 2 3 2 3 3 1 6 9 11 11 12 13 10 9 8 8 8 7 6 6 5 3 3
3 5 5 4 4 8 7 2 4 1 2 2 2 3 1 3 1 2 1 1 1 4 2 4 4 3 4 5 6 9 9 11 12 11 8 7 6 6 6 4 4 4 4 5
4 5 4 3 2 1 5 6 6 4 3 2 1 1 1 1 2 2 2 2 2 0 1 6 3 4 4 6 5 6 9 9 9 10 9 6 5 5 5 5 6 5 5 5
4 4 3 2 3 3 1 2 2 1 2 2 2 2 0 2 2 2 1 2 3 6 6 4 4 5 5 6 8 8 8 8 7 6 7 6 4 3 4 4 4 4 4 5
4 5 6 1 5 2 2 2 2 2 3 2 3 2 4 3 1 3 5 3 7 5 4 4 3 5 7 6 7 8 8 8 8 5 5 7 5 4 4 4 4 4 4 4
4 2 2 3 3 5 4 4 3 3 3 2 3 3 7 1 2 4 5 6 5 3 3 4 4 5 8 9 8 8 8 9 7 4 5 7 5 4 3 4 4 3 5 4
Wind_Direction
351 358 355 354 350 356 61 99 86 290 14 271 196 264 222 231 341 11 27 112 30 115 150 107 94 221 247 169 156 70 92 122 124 128 350 332 134 165 163 145 228 252 127 264
1 4 1 356 354 23 118 85 113 123 236 293 271 296 296 304 25 13 21 24 15 10 100 107 121 308 329 175 110 154 190 26 106 53 3 346 224 178 151 91 82 195 190 261
12 11 6 359 358 75 88 94 76 332 225 232 241 358 345 337 14 14 47 16 53 46 31 36 140 114 29 59 84 56 71 106 149 184 191 136 204 206 202 205 229 228 236 271
20 19 12 4 3 71 95 32 168 183 259 327 358 318 354 344 39 353 31 46 27 53 72 31 60 73 97 43 89 45 72 139 93 288 267 170 207 209 205 211 233 228 260 249
37 24 14 10 8 103 77 107 133 19 19 290 235 354 358 38 330 32 38 72 327 7 97 59 186 117 214 171 118 130 159 150 75 322 348 231 270 246 229 232 235 246 257 270
50 32 21 19 12 71 94 280 34 98 355 357 211 56 329 348 339 78 87 166 75 59 8 260 258 238 194 186 146 124 125 128 98 259 319 313 285 232 213 220 235 225 241 246
56 36 34 36 44 63 107 147 106 84 33 65 44 357 350 349 342 326 337 39 49 317 306 228 177 56 95 112 71 135 134 112 108 216 18 245 237 193 184 208 236 225 253 257
76 67 57 57 65 72 84 132 100 99 95 30 29 8 7 339 332 7 355 11 4 308 286 64 51 355 44 120 161 138 129 130 107 129 206 289 345 154 146 176 279 218 237 259
108 90 77 68 65 110 88 70 108 98 111 29 314 357 17 43 343 346 356 356 317 348 79 69 137 196 212 227 84 88 127 101 114 144 112 254 243 265 180 148 297 248 227 270
137 123 90 74 69 84 102 75 121 88 101 344 30 86 120 195 108 201 303 338 355 338 346 139 156 249 189 152 179 150 147 193 167 223 240 282 251 276 172 74 252 307 268 284
149 140 110 84 84 101 100 123 19 107 105 339 22 347 50 353 53 53 305 248 32 354 70 30 53 88 308 19 216 182 173 163 215 178 197 279 193 70 173 226 289 273 293 280
160 158 131 101 97 103 98 88 331 83 88 163 333 281 281 25 264 188 356 162 205 125 222 53 329 67 47 101 284 345 262 191 206 188 221 264 267 250 262 227 249 280 292 302
161 150 133 140 111 88 102 117 345 61 79 19 46 337 343 10 332 231 33 338 337 26 65 128 73 78 331 260 242 303 273 73 236 358 297 302 287 317 351 340 310 296 274 275
161 149 137 131 120 113 99 84 314 77 97 101 283 337 33 341 35 49 65 43 14 24 2 52 124 147 27 307 315 255 243 337 268 259 311 320 351 21 352 329 324 302 294 268
159 152 141 134 124 109 91 82 28 72 118 145 249 317 0 353 38 52 50 45 30 357 360 16 330 27 40 342 293 264 295 358 346 273 132 245 279 310 317 307 313 306 263 263
153 147 151 142 138 132 82 64 338 0 93 91 58 285 3 2 35 66 70 100 89 77 359 344 326 300 97 32 263 280 326 347 296 277 292 285 279 271 285 299 314 306 263 238
149 151 146 145 139 78 85 129 197 74 73 77 31 356 343 340 41 39 55 43 4 72 32 124 351 334 43 27 252 267 319 307 309 296 296 288 285 296 317 305 299 293 289 294
148 141 139 125 117 104 57 12 52 115 89 71 80 292 21 2 8 55 289 61 30 4 346 355 2 10 55 279 266 300 316 322 309 321 274 267 282 292 296 296 265 239 219 227
142 138 129 83 31 59 149 103 59 51 101 105 76 51 280 355 322 196 110 77 55 31 332 255 89 68 256 245 300 304 315 309 300 305 300 295 289 294 288 289 267 248 243 191
140 133 84 51 335 159 115 48 35 21 359 36 103 236 276 75 299 305 122 112 75 358 225 113 228 251 250 261 292 299 310 307 311 306 318 322 304 294 296 276 27 333 264 251
160 113 90 217 267 70 41 53 69 332 25 30 195 206 268 319 43 292 304 3 111 29 26 295 215 251 199 341 321 319 311 315 308 302 310 305 303 314 292 304 299 12 269 22
181 119 105 87 43 51 84 6 329 68 212 284 185 257 227 276 259 268 313 83 98 296 146 235 251 267 269 337 330 326 324 323 321 327 323 324 334 350 12 12 12 10 352 4
72 67 70 76 307 51 104 166 309 11 209 243 346 316 300 317 315 293 209 168 192 139 208 234 224 253 299 321 320 322 320 323 322 325 331 332 337 359 8 28 355 334 7 9
87 113 58 110 338 198 173 165 173 217 130 157 154 296 180 275 32 266 86 215 230 342 222 229 242 232 279 289 283 307 314 306 308 317 320 326 336 345 347 12 353 348 6 356
93 76 123 152 165 75 127 163 96 228 138 126 61 358 177 257 221 215 326 220 269 204 225 228 245 267 284 301 314 305 301 300 292 286 299 300 312 326 322 342 337 346 350 346
83 74 95 51 71 349 173 171 236 188 133 99 63 75 27 275 235 197 206 205 226 246 211 234 285 300 303 302 301 299 293 285 276 270 271 293 286 294 299 306 309 349 341 339
73 33 29 106 83 156 177 165 196 140 99 165 111 98 224 299 239 237 212 221 222 221 274 256 253 271 299 307 305 298 299 295 277 263 268 279 286 287 305 325 330 345 319 304